GW7920 Weather Reports


time (UTC)temp
C
wind
direction
speed
KPH
gust
KPH
rain 1hr
cm
rain 24hr
cm
rain mn
cm
humidity
%
barometer
mb
20260831001617 15 274 12.9 20.9 0.00 0.00 0.00 83 1013.1
20260831000617 15 287 8.0 19.3 0.00 0.00 0.00 81 1013.1
20260830235617 16 265 17.7 19.3 0.00 0.00 0.00 79 1013.2
20260830234617 16 244 12.9 20.9 0.00 0.00 0.00 79 1013.2
20260830233617 16 272 11.3 22.5 0.00 0.00 0.00 80 1013.3
20260830232617 16 240 1.6 17.7 0.00 0.00 0.00 78 1013.3
20260830231617 17 296 14.5 17.7 0.00 0.00 0.00 77 1013.5
20260830230617 17 265 9.7 20.9 0.00 0.00 0.00 77 1013.5
20260830225617 17 263 12.9 19.3 0.00 0.00 0.00 78 1013.4
20260830224617 17 264 14.5 19.3 0.00 0.00 0.00 77 1013.5
20260830223617 16 242 4.8 16.1 0.00 0.00 0.00 79 1013.7
20260830222617 17 284 14.5 20.9 0.00 0.00 0.00 79 1013.7
20260830221617 16 257 6.4 20.9 0.00 0.00 0.00 78 1013.9
20260830220617 16 262 14.5 17.7 0.00 0.00 0.00 79 1013.9
20260830215617 16 270 11.3 19.3 0.00 0.00 0.00 78 1013.9
20260830214617 16 260 9.7 19.3 0.00 0.00 0.00 79 1014.0
20260830213617 17 274 12.9 17.7 0.00 0.00 0.00 77 1014.2
20260830212616 16 279 12.9 20.9 0.00 0.00 0.00 78 1014.5
20260830211616 17 262 6.4 19.3 0.00 0.00 0.00 78 1014.4
20260830210616 16 279 9.7 19.3 0.00 0.00 0.00 78 1014.4
20260830205616 16 287 14.5 19.3 0.00 0.00 0.00 78 1014.6
20260830204616 16 257 12.9 16.1 0.00 0.00 0.00 79 1014.6
20260830203616 16 278 14.5 19.3 0.00 0.00 0.00 79 1014.7
20260830202616 16 259 11.3 19.3 0.00 0.00 0.00 79 1014.7
20260830201616 16 250 4.8 16.1 0.00 0.00 0.00 79 1014.7
20260830200616 16 284 9.7 17.7 0.00 0.00 0.00 80 1014.8
20260830195616 16 265 9.7 16.1 0.00 0.00 0.00 82 1015.0
20260830194616 15 267 12.9 14.5 0.00 0.00 0.00 83 1015.0
20260830193616 15 265 12.9 17.7 0.00 0.00 0.00 85 1015.0
20260830192616 15 274 9.7 20.9 0.00 0.00 0.00 84 1015.1
20260830191616 14 253 6.4 22.5 0.00 0.00 0.00 85 1014.9
20260830190616 15 275 11.3 17.7 0.00 0.00 0.00 85 1014.9
20260830185616 14 262 9.7 22.5 0.00 0.00 0.00 86 1015.0
20260830184616 14 262 9.7 16.1 0.00 0.00 0.00 86 1015.0
20260830183616 13 256 1.6 17.7 0.00 0.00 0.00 88 1015.1
20260830182616 13 260 11.3 20.9 0.00 0.00 0.00 87 1015.1
20260830181616 14 258 6.4 19.3 0.00 0.00 0.00 87 1015.1
20260830180615 13 260 3.2 4.8 0.00 0.00 0.00 88 1015.0
20260830175322 13 265 9.7 22.5 0.00 0.00 0.00 90 1015.0
20260830174322 13 267 4.8 19.3 0.00 0.00 0.00 91 1014.9
20260830173322 12 259 6.4 20.9 0.00 0.00 0.00 93 1014.9
20260830172322 12 273 6.4 22.5 0.00 0.00 0.00 94 1014.8
20260830171322 12 233 6.4 16.1 0.00 0.00 0.00 95 1014.7
20260830170322 12 270 4.8 20.9 0.00 0.00 0.00 95 1014.6
20260830165322 12 267 14.5 24.1 0.00 0.00 0.00 96 1014.5
20260830164322 12 221 6.4 24.1 0.00 0.00 0.00 96 1014.5
20260830163322 11 234 3.2 22.5 0.00 0.00 0.00 96 1014.5
20260830162322 11 277 22.5 22.5 0.00 0.00 0.00 96 1014.4
20260830161322 11 253 4.8 20.9 0.00 0.00 0.00 96 1014.5
20260830160322 11 234 3.2 24.1 0.00 0.00 0.00 96 1014.4
20260830155322 11 238 4.8 27.4 0.00 0.00 0.00 96 1014.5
20260830154322 11 252 8.0 25.7 0.00 0.00 0.00 96 1014.6
20260830153322 11 248 3.2 27.4 0.00 0.00 0.00 96 1014.6
20260830152322 11 273 11.3 27.4 0.00 0.00 0.00 96 1014.4
20260830151322 11 236 11.3 24.1 0.00 0.00 0.00 96 1014.4
20260830150321 11 284 3.2 17.7 0.00 0.00 0.00 96 1014.5
20260830145321 11 273 9.7 24.1 0.00 0.00 0.00 96 1014.5
20260830144321 11 251 3.2 20.9 0.00 0.00 0.00 96 1014.5
20260830143321 11 258 6.4 20.9 0.00 0.00 0.00 96 1014.4
20260830142321 11 250 3.2 19.3 0.00 0.00 0.00 96 1014.3
20260830141321 11 221 3.2 20.9 0.00 0.00 0.00 96 1014.3
20260830140321 11 311 12.9 22.5 0.00 0.00 0.00 96 1014.2
20260830135321 11 266 11.3 20.9 0.00 0.00 0.00 96 1014.1
20260830134321 11 219 3.2 12.9 0.00 0.00 0.00 96 1014.0
20260830133321 11 256 11.3 22.5 0.00 0.00 0.00 96 1013.8
20260830132321 11 235 3.2 22.5 0.00 0.00 0.00 96 1013.7
20260830131321 11 249 4.8 25.7 0.00 0.00 0.00 96 1013.7
20260830130321 11 238 6.4 20.9 0.00 0.00 0.00 95 1013.6
20260830125321 11 275 3.2 19.3 0.00 0.00 0.00 95 1013.6
20260830124321 11 239 3.2 17.7 0.00 0.00 0.00 95 1013.6
20260830123321 11 227 3.2 14.5 0.00 0.00 0.00 95 1013.5
20260830122321 11 276 4.8 19.3 0.00 0.00 0.00 95 1013.5
20260830121321 11 266 3.2 16.1 0.00 0.00 0.00 95 1013.5
20260830120321 11 225 4.8 22.5 0.00 0.00 0.00 95 1013.5
20260830115321 11 219 4.8 16.1 0.00 0.00 0.00 95 1013.6
20260830114321 11 248 3.2 9.7 0.00 0.00 0.00 95 1013.5
20260830113321 11 231 3.2 14.5 0.00 0.00 0.00 95 1013.7
20260830112321 11 230 3.2 6.4 0.00 0.00 0.00 95 1013.6
20260830111321 11 242 3.2 9.7 0.00 0.00 0.00 95 1013.6
20260830110321 11 206 3.2 9.7 0.00 0.00 0.00 95 1013.5
20260830105321 11 271 3.2 11.3 0.00 0.00 0.00 95 1013.6
20260830104321 11 226 1.6 9.7 0.00 0.00 0.00 95 1013.5
20260830103321 11 245 3.2 14.5 0.00 0.00 0.00 95 1013.6
20260830102321 11 263 6.4 6.4 0.00 0.00 0.00 95 1013.6
20260830101321 11 236 6.4 8.0 0.00 0.00 0.00 95 1013.6
20260830100321 11 213 3.2 6.4 0.00 0.00 0.00 95 1013.7
20260830095321 11 250 4.8 19.3 0.00 0.00 0.00 94 1013.7
20260830094321 11 217 1.6 9.7 0.00 0.00 0.00 94 1013.8
20260830093321 11 221 3.2 9.7 0.00 0.00 0.00 94 1013.7
20260830092321 11 199 4.8 14.5 0.00 0.00 0.00 94 1013.7
20260830091321 11 236 1.6 9.7 0.00 0.00 0.00 94 1013.9
20260830090321 11 209 4.8 6.4 0.00 0.00 0.00 94 1013.9
20260830085320 11 257 1.6 8.0 0.00 0.00 0.00 94 1013.9
20260830084320 11 268 4.8 12.9 0.00 0.00 0.00 94 1014.1
20260830083320 11 224 3.2 11.3 0.00 0.00 0.00 94 1014.1
20260830082320 11 279 11.3 11.3 0.00 0.00 0.00 93 1014.2
20260830081320 11 240 4.8 12.9 0.00 0.00 0.00 93 1014.2
20260830080320 11 221 3.2 11.3 0.00 0.00 0.00 93 1014.3
20260830075320 11 209 8.0 22.5 0.00 0.00 0.00 93 1014.2
20260830074320 11 282 3.2 11.3 0.00 0.00 0.00 93 1014.3
20260830073320 11 213 4.8 14.5 0.00 0.00 0.00 93 1014.3
20260830072320 11 244 14.5 17.7 0.00 0.00 0.00 93 1014.2
20260830071320 11 262 3.2 24.1 0.00 0.00 0.00 93 1014.3
20260830070320 11 238 3.2 8.0 0.00 0.00 0.00 93 1014.2
20260830065320 11 217 3.2 8.0 0.00 0.00 0.00 93 1014.4
20260830064320 11 246 1.6 6.4 0.00 0.00 0.00 93 1014.4
20260830063320 11 282 3.2 12.9 0.00 0.00 0.00 92 1014.6
20260830062320 11 211 1.6 8.0 0.00 0.00 0.00 92 1014.7
20260830061320 11 205 8.0 8.0 0.00 0.00 0.00 92 1014.8
20260830060320 11 220 3.2 14.5 0.00 0.00 0.00 92 1014.8
20260830055319 11 240 3.2 9.7 0.00 0.00 0.00 92 1014.8
20260830054319 12 254 3.2 6.4 0.00 0.00 0.00 92 1014.9
20260830053319 12 221 3.2 11.3 0.00 0.00 0.00 92 1014.9
20260830052319 12 261 4.8 12.9 0.00 0.00 0.00 92 1014.9
20260830051319 12 257 11.3 17.7 0.00 0.00 0.00 91 1015.0
20260830050319 12 257 4.8 17.7 0.00 0.00 0.00 91 1015.0
20260830045319 12 265 6.4 20.9 0.00 0.00 0.00 91 1015.0
20260830044319 12 228 3.2 24.1 0.00 0.00 0.00 91 1014.9
20260830043319 12 258 3.2 16.1 0.00 0.00 0.00 90 1014.9
20260830042319 12 263 6.4 11.3 0.00 0.00 0.00 90 1014.9
20260830041319 12 340 3.2 22.5 0.00 0.00 0.00 89 1014.8
20260830040319 12 273 4.8 19.3 0.00 0.00 0.00 88 1014.5
20260830035319 12 207 6.4 14.5 0.00 0.00 0.00 88 1014.2
20260830034319 12 250 6.4 14.5 0.00 0.00 0.00 87 1014.3
20260830033319 12 214 3.2 16.1 0.00 0.00 0.00 86 1014.0
20260830032319 12 248 4.8 12.9 0.00 0.00 0.00 85 1014.1
20260830031319 12 236 3.2 17.7 0.00 0.00 0.00 84 1013.9
20260830030319 12 267 11.3 17.7 0.00 0.00 0.00 83 1014.1
20260830025319 12 269 6.4 24.1 0.00 0.00 0.00 81 1014.2
20260830024319 13 215 3.2 22.5 0.00 0.00 0.00 80 1014.0
20260830023319 13 250 8.0 22.5 0.00 0.00 0.00 78 1014.1
20260830022319 14 235 4.8 29.0 0.00 0.00 0.00 77 1014.1
20260830021319 15 217 8.0 20.9 0.00 0.00 0.00 76 1014.1
20260830020319 15 273 6.4 24.1 0.00 0.00 0.00 74 1014.1
20260830015319 16 245 3.2 24.1 0.00 0.00 0.00 73 1014.1
20260830014319 16 302 6.4 19.3 0.00 0.00 0.00 72 1014.2
20260830013319 16 227 3.2 16.1 0.00 0.00 0.00 71 1014.1
20260830012319 16 223 6.4 14.5 0.00 0.00 0.00 71 1014.1
20260830011319 17 223 3.2 16.1 0.00 0.00 0.00 71 1014.1
20260830010319 17 268 11.3 22.5 0.00 0.00 0.00 72 1014.4
20260830005319 17 227 3.2 19.3 0.00 0.00 0.00 71 1014.3
20260830004319 17 263 4.8 12.9 0.00 0.00 0.00 71 1014.3
20260830003319 17 239 3.2 19.3 0.00 0.00 0.00 71 1014.2